[[[{"header":{"parameterUnit":"kt","parameterCategory":2,"dx":1,"dy":1,"la1":30.253999710083008,"la2":30.299108505249023,"lo1":-89.0895004272461,"lo2":-89.04439544677734,"nx":28,"ny":28,"refTime":"2022-09-23T21:00:00:Z","depth":0,"parameterNumber":1,"parameterNumberName":"U-component_of_WINDS"},"data":[-0.2962,-0.2918,-0.289,-0.2827,-0.279,-0.2742,-0.2716,-0.2679,-0.2642,-0.2581,-0.2542,-0.2507,-0.2458,-0.2403,-0.2358,-0.2343,-0.2327,-0.2335,-0.2316,-0.2307,-0.2304,-0.2301,-0.231,-0.2332,-0.2332,-0.233,-0.233,-0.233,-0.2967,-0.2931,-0.2888,-0.2826,-0.279,-0.2766,-0.2715,-0.2686,-0.2643,-0.2596,-0.2554,-0.2498,-0.2449,-0.2394,-0.2342,-0.2322,-0.2307,-0.231,-0.2311,-0.2304,-0.2293,-0.2303,-0.2324,-0.2324,-0.2324,-0.2324,-0.2324,-0.2324,-0.2968,-0.2942,-0.2887,-0.2839,-0.28,-0.2759,-0.2729,-0.2686,-0.2643,-0.2584,-0.2555,-0.2505,-0.2451,-0.2371,-0.2336,-0.2296,-0.2286,-0.228,-0.2278,-0.2278,-0.2283,-0.2295,-0.2285,-0.2285,-0.2285,-0.2285,-0.2285,0,-0.2959,-0.2937,-0.2891,-0.2839,-0.2802,-0.2757,-0.271,-0.2691,-0.2628,-0.2595,-0.2544,-0.2509,-0.244,-0.2389,-0.2331,-0.2294,-0.2263,-0.2255,-0.2251,-0.2265,-0.2288,-0.2278,-0.2264,-0.2255,-0.2254,-0.2254,-0.2254,-0.2254,-0.296,-0.2931,-0.2857,-0.2829,-0.2795,-0.2751,-0.2719,-0.2665,-0.2632,-0.2566,-0.2545,-0.2492,-0.2446,-0.2368,-0.2315,-0.2262,-0.2246,-0.2247,-0.2238,-0.2255,-0.2249,-0.2251,-0.225,-0.225,-0.225,-0.225,-0.2251,0,-0.2964,-0.2912,-0.2857,-0.2784,-0.2765,-0.2738,-0.2675,-0.2645,-0.2604,-0.2558,-0.2544,-0.2479,-0.2429,-0.2374,-0.2304,-0.2277,-0.2235,-0.222,-0.2256,-0.225,-0.2247,-0.2249,-0.2239,-0.2236,-0.2212,-0.2212,-0.2212,0,-0.2944,-0.2907,-0.2832,-0.2802,-0.2761,-0.2706,-0.2666,-0.2626,-0.2576,-0.2538,-0.2493,-0.2459,-0.2394,-0.2352,-0.2312,-0.2267,-0.2253,-0.223,-0.222,-0.2234,-0.2238,-0.2215,-0.2215,-0.2194,-0.2194,-0.2195,-0.2195,0,-0.2956,-0.287,-0.2821,-0.2793,-0.2709,-0.2687,-0.2651,-0.2592,-0.2559,-0.2508,-0.2486,-0.2429,-0.2398,-0.2355,-0.2304,-0.2301,-0.2247,-0.2231,-0.2223,-0.2225,-0.2213,-0.2215,-0.2221,-0.2195,-0.2195,-0.2195,-0.2195,0,-0.2931,-0.2879,-0.2815,-0.2745,-0.2724,-0.269,-0.2631,-0.2589,-0.253,-0.2503,-0.2461,-0.2423,-0.2376,-0.2366,-0.2302,-0.2312,-0.2285,-0.2257,-0.2256,-0.2248,-0.2237,-0.225,-0.226,-0.226,-0.2243,-0.2243,-0.2244,0,-0.2961,-0.288,-0.2831,-0.277,-0.2725,-0.2678,-0.264,-0.2588,-0.2547,-0.2503,-0.2458,-0.2407,-0.2386,-0.2362,-0.2338,-0.2288,-0.2275,-0.2288,-0.2227,-0.2226,-0.2247,-0.2256,-0.2272,-0.2264,-0.2248,-0.2247,-0.2247,0,-0.2976,-0.2871,-0.2863,-0.2829,-0.2749,-0.2709,-0.2665,-0.2602,-0.2576,-0.2519,-0.2482,-0.2407,-0.239,-0.2349,-0.231,-0.2288,-0.2283,-0.2271,-0.2268,-0.2277,-0.2244,-0.226,-0.2259,-0.2262,-0.2262,-0.2261,-0.225,0,-0.2955,-0.2905,-0.2881,-0.2802,-0.2762,-0.2719,-0.2657,-0.2624,-0.2592,-0.2548,-0.249,-0.2428,-0.2361,-0.2343,-0.2309,-0.2274,-0.2271,-0.2251,-0.2235,-0.224,-0.2236,-0.2233,-0.2248,-0.2247,-0.2246,-0.2246,0,0,-0.2998,-0.2924,-0.2868,-0.2821,-0.2784,-0.2732,-0.2692,-0.2649,-0.2563,-0.2539,-0.253,-0.2415,-0.2363,-0.2298,-0.2295,-0.2267,-0.2255,-0.2254,-0.2238,-0.2237,-0.2236,-0.2232,-0.2231,-0.2245,-0.2244,-0.2244,-0.2244,0,-0.2977,-0.2926,-0.2885,-0.2839,-0.2767,-0.2722,-0.2713,-0.2632,-0.2601,-0.2541,-0.2498,-0.2454,-0.236,-0.2314,-0.2277,-0.2261,-0.223,-0.2245,-0.2258,-0.2233,-0.2233,-0.2233,-0.223,-0.2229,-0.2242,-0.2242,-0.2242,0,-0.2982,-0.2923,-0.2895,-0.2805,-0.2757,-0.2709,-0.2679,-0.2628,-0.2593,-0.2534,-0.2475,-0.2431,-0.2361,-0.2306,-0.2278,-0.2268,-0.2211,-0.2215,-0.2218,-0.2213,-0.2185,-0.2186,-0.2186,-0.2181,-0.2181,-0.2181,0,0,-0.2972,-0.2923,-0.284,-0.2796,-0.2769,-0.2699,-0.2666,-0.2629,-0.2567,-0.2543,-0.2485,-0.2426,-0.2371,-0.2336,-0.228,-0.2228,-0.2209,-0.221,-0.2213,-0.2216,-0.2213,-0.2186,-0.2186,-0.2181,-0.2181,-0.2181,0,0,-0.2966,-0.2868,-0.2846,-0.2786,-0.273,-0.2643,-0.2619,-0.2588,-0.2532,-0.2529,-0.2462,-0.2443,-0.239,-0.2347,-0.2358,-0.2274,-0.2259,-0.2255,-0.2303,-0.2306,-0.2309,-0.232,-0.2315,0,0,0,0,0,-0.2911,-0.2881,-0.2861,-0.2842,-0.2725,-0.2655,-0.2639,-0.2584,-0.2576,-0.2559,-0.2506,-0.2473,-0.234,-0.2348,-0.2329,-0.2317,-0.2184,-0.2184,-0.2183,-0.2232,-0.2236,-0.2239,0,0,0,0,0,0,-0.2903,-0.2879,-0.2862,-0.2775,-0.2748,-0.2655,-0.263,-0.2614,-0.2577,-0.2572,-0.2485,-0.247,-0.2421,-0.2354,-0.2338,-0.2327,-0.2321,-0.2184,-0.2184,-0.2183,-0.2234,-0.2237,-0.2239,0,0,0,0,0,-0.2897,-0.2877,-0.2704,-0.2775,-0.2752,-0.2671,-0.2631,-0.2617,-0.2587,-0.2503,-0.2488,-0.2549,-0.2422,-0.2404,-0.2344,-0.2336,-0.2331,-0.2326,-0.2184,-0.2183,-0.2183,-0.2235,0,0,0,0,0,0,-0.2891,-0.2864,-0.2698,-0.2689,-0.2782,-0.2675,-0.2657,-0.262,-0.252,-0.2505,-0.2564,-0.2561,-0.2422,-0.2409,-0.2396,-0.2343,-0.234,-0.2334,-0.2331,-0.2183,-0.2183,-0.2183,0,0,0,0,0,0,-0.2874,-0.2857,-0.2693,-0.2705,-0.2696,-0.2679,-0.2663,-0.2602,-0.2519,-0.2586,-0.258,-0.2564,-0.2442,-0.2412,-0.2401,-0.2308,-0.2347,-0.2341,-0.2337,-0.2335,-0.2183,-0.2183,0,0,0,0,0,0,-0.2866,-0.2851,-0.2707,-0.27,-0.2693,-0.2586,-0.2624,-0.2507,-0.2531,-0.2591,-0.2531,-0.2531,-0.2445,-0.2434,-0.2405,-0.2317,-0.2311,-0.2347,-0.2343,-0.234,-0.2338,0,0,0,0,0,0,0,-0.2859,-0.2972,-0.2753,-0.2697,-0.269,-0.2605,-0.2602,-0.26,-0.2531,-0.2531,-0.2531,-0.2531,-0.2379,-0.2373,-0.2367,-0.2324,0,0,-0.2347,-0.2344,0,0,0,0,0,0,0,0,-0.2977,-0.2973,-0.2752,-0.2751,-0.2749,-0.2604,-0.2602,-0.26,-0.2531,-0.2531,-0.2531,-0.2531,-0.2377,-0.2372,-0.2367,0,0,0,0,0,0,0,0,0,0,0,0,0,0,0,-0.2752,-0.2751,0,-0.2604,-0.2602,-0.26,-0.2531,-0.2531,-0.2531,-0.2531,-0.2376,-0.2372,-0.2368,0,0,0,0,0,0,0,0,0,0,0,0,0,0,0,0,0,0,0,0,0,0,0,0,0,0,0,0,0,0,0,0,0,0,0,0,0,0,0,0,0,0,0,0,0,0,0,0,0,0,0,0,0,0,0,0,0,0,0,0,0,0,0,0,0,0,0,0,0]}],[{"header":{"parameterUnit":"kt","parameterCategory":2,"dx":1,"dy":1,"la1":30.253999710083008,"la2":30.299108505249023,"lo1":-89.0895004272461,"lo2":-89.04439544677734,"nx":28,"ny":28,"refTime":"2022-09-23T21:00:00:Z","depth":0,"parameterNumber":2,"parameterNumberName":"V-component_of_WINDS"},"data":[3.4386,3.4363,3.4319,3.4273,3.4226,3.4185,3.4156,3.4114,3.407,3.4016,3.3976,3.3929,3.3865,3.3807,3.376,3.3739,3.372,3.3745,3.3715,3.3649,3.3636,3.3624,3.3625,3.3744,3.3744,3.3787,3.3788,3.3788,3.4342,3.4295,3.4259,3.4192,3.416,3.411,3.4054,3.4028,3.3993,3.3939,3.3898,3.3846,3.3799,3.3725,3.3671,3.3657,3.3627,3.3645,3.3641,3.3631,3.356,3.3561,3.3669,3.3669,3.3669,3.3669,3.3669,3.3669,3.4248,3.4237,3.417,3.4129,3.4084,3.404,3.4021,3.3963,3.3925,3.3864,3.3819,3.3778,3.3712,3.3625,3.3584,3.3549,3.352,3.3523,3.3523,3.3523,3.3529,3.3463,3.3538,3.3538,3.3537,3.3537,3.3537,0,3.4164,3.4127,3.4088,3.4037,3.4004,3.396,3.391,3.3898,3.3803,3.3776,3.3732,3.3698,3.3633,3.3584,3.3523,3.3478,3.3418,3.3409,3.341,3.3427,3.3451,3.3432,3.3313,3.3405,3.3404,3.3403,3.3402,3.3402,3.406,3.4054,3.3962,3.3941,3.3902,3.387,3.3841,3.3758,3.373,3.3657,3.365,3.3602,3.3558,3.3494,3.3422,3.3371,3.334,3.3379,3.3331,3.3351,3.3332,3.3331,3.3327,3.3388,3.3389,3.3391,3.3392,0,3.4005,3.3931,3.3906,3.3815,3.3792,3.3789,3.371,3.3695,3.3639,3.361,3.3598,3.3508,3.3466,3.3387,3.3322,3.3281,3.327,3.3245,3.3291,3.3279,3.3302,3.3298,3.34,3.3407,3.329,3.3291,3.3292,0,3.3883,3.3878,3.3767,3.3756,3.3747,3.3662,3.3655,3.3605,3.3547,3.3523,3.3445,3.3424,3.3326,3.3293,3.3233,3.3211,3.32,3.3165,3.3147,3.3168,3.3171,3.3145,3.3136,3.3117,3.3117,3.3116,3.3116,0,3.3798,3.3734,3.3718,3.369,3.3591,3.3585,3.3544,3.3477,3.3449,3.34,3.338,3.333,3.33,3.3262,3.3184,3.3154,3.3157,3.3099,3.312,3.3121,3.3118,3.3118,3.3235,3.3115,3.3115,3.3115,3.3115,0,3.3685,3.3639,3.3628,3.3541,3.3527,3.3518,3.346,3.3434,3.3369,3.333,3.3291,3.3226,3.3204,3.3152,3.3117,3.3099,3.3075,3.304,3.304,3.3026,3.2967,3.3035,3.3162,3.3168,3.3023,3.3022,3.3022,0,3.3606,3.3574,3.3499,3.3491,3.3464,3.3373,3.3361,3.3306,3.3253,3.3221,3.3162,3.3127,3.3072,3.3049,3.3044,3.2979,3.3004,3.2975,3.2923,3.2922,3.2936,3.3053,3.3087,3.3145,3.3011,3.3012,3.3013,0,3.3532,3.3411,3.3415,3.3378,3.3292,3.327,3.3258,3.3203,3.3186,3.3135,3.3117,3.307,3.3024,3.2988,3.2928,3.2927,3.2985,3.2877,3.2874,3.2893,3.3001,3.3034,3.3044,3.2945,3.2946,3.2947,3.3005,0,3.3367,3.3342,3.3351,3.3274,3.3245,3.3237,3.315,3.3131,3.3076,3.3018,3.2995,3.2929,3.2872,3.2865,3.2812,3.2836,3.2817,3.2769,3.2705,3.2786,3.2801,3.2809,3.2689,3.2686,3.2684,3.2683,0,0,3.3305,3.3266,3.3182,3.3165,3.3134,3.3038,3.3035,3.2995,3.2914,3.2894,3.286,3.2781,3.2728,3.2707,3.2726,3.2706,3.27,3.2675,3.275,3.2758,3.2765,3.2783,3.2793,3.2679,3.2678,3.2678,3.2677,0,3.3223,3.3175,3.3175,3.3128,3.3056,3.2995,3.2996,3.2907,3.2869,3.2847,3.2764,3.274,3.2681,3.2633,3.2601,3.2678,3.2613,3.2669,3.2736,3.2733,3.2744,3.2753,3.2774,3.2784,3.2672,3.2673,3.2673,0,3.313,3.3065,3.3056,3.2984,3.2935,3.2911,3.2825,3.2804,3.2784,3.2677,3.2655,3.2606,3.2536,3.2531,3.2525,3.2492,3.2539,3.2511,3.2521,3.2516,3.2508,3.2521,3.2533,3.2381,3.238,3.2379,0,0,3.3071,3.3048,3.295,3.296,3.2935,3.2844,3.2822,3.2764,3.2704,3.268,3.2614,3.2557,3.252,3.2498,3.246,3.2468,3.2443,3.2479,3.2492,3.2504,3.2505,3.2501,3.2514,3.2377,3.2377,3.2377,0,0,3.3042,3.2928,3.2883,3.2883,3.283,3.2732,3.274,3.2682,3.2638,3.2628,3.2528,3.2509,3.2502,3.2457,3.2434,3.2434,3.2374,3.2378,3.2463,3.2479,3.2492,3.25,3.2332,0,0,0,0,0,3.2912,3.2942,3.2902,3.2889,3.2796,3.2755,3.2742,3.266,3.2618,3.2627,3.2562,3.2496,3.2423,3.24,3.2388,3.2412,3.2344,3.235,3.2356,3.2466,3.2484,3.2499,0,0,0,0,0,0,3.2906,3.289,3.2901,3.2806,3.2784,3.2753,3.2664,3.2642,3.2615,3.2603,3.2511,3.2493,3.2422,3.2401,3.2391,3.2416,3.2334,3.2347,3.2352,3.2356,3.2473,3.2487,3.25,0,0,0,0,0,3.2901,3.2888,3.276,3.2805,3.2786,3.2684,3.2662,3.2643,3.262,3.252,3.25,3.256,3.2425,3.2411,3.2395,3.2422,3.2341,3.2337,3.235,3.2354,3.2357,3.248,0,0,0,0,0,0,3.2897,3.287,3.2755,3.2746,3.2787,3.2684,3.2665,3.2644,3.2537,3.2518,3.2564,3.2555,3.2428,3.2416,3.2406,3.2429,3.2345,3.2342,3.234,3.2353,3.2356,3.2358,0,0,0,0,0,0,3.2876,3.2863,3.275,3.2732,3.272,3.2684,3.2668,3.2642,3.2537,3.2587,3.2576,3.2561,3.2442,3.242,3.2412,3.2375,3.2349,3.2346,3.2344,3.2342,3.2355,3.2358,0,0,0,0,0,0,3.2869,3.2858,3.2733,3.2724,3.2714,3.2608,3.266,3.2569,3.2523,3.2593,3.2516,3.2513,3.2448,3.2438,3.2416,3.2384,3.2377,3.2349,3.2347,3.2345,3.2344,0,0,0,0,0,0,0,3.2863,3.2958,3.2808,3.2718,3.2709,3.2664,3.2661,3.2659,3.2522,3.252,3.2517,3.2515,3.2367,3.2364,3.236,3.2391,0,0,3.2349,3.2348,0,0,0,0,0,0,0,0,3.2961,3.2959,3.2807,3.2806,3.2804,3.2663,3.2661,3.2659,3.2522,3.252,3.2518,3.2516,3.2366,3.2364,3.2361,0,0,0,0,0,0,0,0,0,0,0,0,0,0,0,3.2807,3.2806,0,3.2663,3.2661,3.266,3.2522,3.252,3.2518,3.2516,3.2366,3.2363,3.2361,0,0,0,0,0,0,0,0,0,0,0,0,0,0,0,0,0,0,0,0,0,0,0,0,0,0,0,0,0,0,0,0,0,0,0,0,0,0,0,0,0,0,0,0,0,0,0,0,0,0,0,0,0,0,0,0,0,0,0,0,0,0,0,0,0,0,0,0,0]}]]]